Flag for U.S.A. Weather past 2 weeks in Green Bay, Wisconsin, U.S.A.

Now
28 °F

Overcast.


Feels Like: 16 °F
Forecast: 21 / 31 °F
Wind: 15 mph from West

Location: Austin Straubel International Airport

Current Time: Mar 3, 2015 at 3:21:47 PM

Latest Report: Mar 3, 2015 at 2:53 PM


Visibility: 6 mi

Pressure: 29.58 "Hg

Humidity: 81%

Dew point: 23 °F

Location of Green BayLocation

Historic Weather in Green Bay — Graph

°F

Green Bay temperature yesterday

Maximum temperature yesterday: 27 °F (at 2:53 PM)
Minimum temperature yesterday: 11 °F (at 5:53 AM)
Average temperature yesterday: 21 °F

Past Weeks' High & Low Weather Summary

 TemperatureHumidityPressure
High34 °F (Feb 24, 2:53 PM)96% (Mar 3, 2:53 AM)30.75 "Hg (Mar 3, 2:53 AM)
Low-13 °F (Feb 19, 6:53 AM)37% (Feb 24, 6:53 PM)29.52 "Hg (Feb 24, 1:53 PM)
Average10 °F64%30.22 "Hg
* Reported Feb 16 12:53 PM — Mar 3 12:53 PM, Green Bay, Weather by CustomWeather, © 2015

Note: Actual official high and low records may vary slightly from our data, if they occured in-between our weather recording intervals... More about our weather records

Advertising

Green Bay weather history for previous 24 hours

 ConditionsComfort  
Time TempWeatherWind HumidityBarometerVisibility
12:53 PM
Tue, Mar 3
27 °FLight snow. Ice fog.10 mph92%29.60 "Hg2 mi
11:53 AM28 °FLight snow. Ice fog.12 mph93%29.65 "Hg1 mi
11:01 AM27 °FLight snow. Ice fog.8 mph96%29.64 "Hg1 mi
10:03 AM26 °FIce fog.9 mph92%29.69 "Hg2 mi
9:53 AM26 °FLight snow. Ice fog.9 mph92%29.72 "Hg1 mi
8:53 AM26 °FLight snow. Ice fog.9 mph92%29.79 "Hg0 mi
7:53 AM26 °FSnow. Ice fog.10 mph88%29.85 "Hg1 mi
7:02 AM26 °FLight snow. Mostly cloudy.13 mph77%29.85 "Hg2 mi
6:53 AM26 °FMore clouds than sun.10 mph77%29.89 "Hg4 mi
5:53 AM25 °FOvercast.9 mph75%29.96 "Hg7 mi
4:53 AM23 °FOvercast.9 mph85%30.01 "Hg8 mi
3:53 AM23 °FOvercast.8 mph88%30.04 "Hg7 mi
2:53 AM22 °FIce fog.6 mph96%30.11 "Hg6 mi
1:53 AM23 °FLight snow. Ice fog.9 mph88%30.17 "Hg1 mi
12:53 AM25 °FOvercast.9 mph66%30.20 "Hg10 mi
11:53 PM
Mon, Mar 2
24 °FOvercast.6 mph75%30.22 "Hg10 mi
10:53 PM24 °FOvercast.6 mph71%30.26 "Hg10 mi
9:53 PM24 °FPassing clouds.7 mph71%30.28 "Hg10 mi
8:53 PM23 °FClear.6 mph68%30.30 "Hg10 mi
7:53 PM24 °FClear.5 mph62%30.33 "Hg10 mi
6:53 PM23 °FClear.6 mph65%30.35 "Hg10 mi
5:53 PM24 °FClear.7 mph62%30.38 "Hg10 mi
4:53 PM26 °FSunny.7 mph55%30.39 "Hg10 mi
3:53 PM27 °FSunny.7 mph58%30.41 "Hg10 mi
Weather by CustomWeather, © 2015

See weather overviewHow to use our weather pages